Route Details

Aircraft Information
Group: North America Fleet
Types: B738, B752, B762, B763
Route Data
Distance: 909nm
Duration: 3h 00m
Origin METAR: TJSJ 072356Z 08012KT 10SM BKN025 26/22 A3010 RMK AO2 SLP190 60011 T02560222 10289 20250 53012
Dest. METAR: KMIA 072353Z 10010KT 10SM SCT040 SCT250 24/15 A3023 RMK AO2 SLP236 T02390150 10267 20233 53008 $
Freight Data
(for Feb 8, 2023)
Load Factor:
34%
Manifested Cargo: 39,224lbs
Financial History
Total Freight: 838,110lbs
Average Load: 0lbs/flt
Fuel Used: 316,178lbs
Avg. Fuel Used: 0lbs/flt
Fuel Expense: $128,728
Avg. Fuel Expense: $0
Avg. Fuel Cost: $0/lbs
Total Gross Income: $1,536,203
Pilot Pay: $2,567
Total Expenses: $251,942
Total Revenue: $1,146,771
Average Revenue: $0

Capitol Logistics 317




TJSJ
Luis Munoz Marin International Airport
San Juan, PR
KMIA
Miami International Airport
Miami, US

Activity Log

Date Flight Route Aircraft Duration
07/16/2022 CPX317 ACONY3 PALDE DCT FEKKO Y308 MADIZ VIICE2 B763 2h 27m
07/15/2022 CPX317 ACONY3 PALDE DCT FEKKO Y308 MADIZ VIICE2 B763 2h 14m
06/13/2022 CPX238 PALDE FEKKO Y308 MADIZ VIICE2 B752 2h 37m
04/12/2022 CPX2140 ACONY3 PALDE FEKKO Y308 MADIZ VIICE1 B763 2h 48m
09/23/2021 CPX238 ACONY3 PALDE FEKKO Y308 FOWEE FLIPR6 B752 2h 33m
08/12/2021 CPX2140 ACONY3 PALDE FEKKO Y308 FOWEE FLIPR7 A30F 2h 29m
08/11/2021 CPX238 ACONY3 PALDE FEKKO Y308 FOWEE FLIPR6 A30F 2h 31m
04/17/2021 CPX2140 ACONY3 PALDE FEKKO Y308 FOWEE FLIPR7 B763 2h 50m
10/12/2019 CPX238 ACONY3 PALDE FEKKO Y308 FOWEE FLIPR6 B763 2h 48m
06/19/2019 CPX238 ACONY3 PALDE FEKKO Y308 FOWEE FLIPR6 B763 2h 33m
06/06/2019 CPX238 ACONY3 PALDE FEKKO Y308 FOWEE FLIPR6 B763 2h 20m
04/06/2019 CPX238 ACONY3 PALDE FEKKO Y308 FOWEE FLIPR6 B763 2h 50m
02/17/2019 CPX238 ACONY3 PALDE FEKKO Y308 FOWEE FLIPR6 B763 2h 41m